Location: Gorze? G�rny
(49.8500°N, 19.5000°E)
Time: 05:27:30
(UTC+00:00)

Cosmos 468 - Pass Details

Date: 13 May 2021
Orbit: 762 x 783 km, 74.0° (Epoch: 20 June)

Event Time Altitude Azimuth Distance (km) Brightness Sun altitude
Rises 21:58:54 0° 335° (NNW) 3,263 9.1 -21.0°
Reaches altitude 10° 22:01:18 10° 335° (NNW) 2,329 8.1 -21.0°
Maximum altitude 22:06:35 82° 249° (WSW) 784 4.4 -21.2°
Enters shadow 22:08:05 48° 168° (SSE) 1,000 4.6 -21.2°
